Tracking 31027 objects as of 19-Jul-2025
HD Live streaming from Space Station
objects crossing your sky now

ATLAS 5 CENTAUR DEB

Track ATLAS 5 CENTAUR DEB now!


NORAD ID: 46657
Int'l Code: 2018-079CK
Perigee: 8,255.7 km
Apogee: 38,390.5 km
Inclination: 12.2 °
Period: 848.7 minutes
Semi major axis: 29694 km
RCS: Unknown
Launch date: October 17, 2018
Source: United States (US)
Launch site: AIR FORCE EASTERN TEST RANGE (AFETR)

Note: This is SATELLITE DEBRIS
Your satellite tracking list
FLOCK 3S 1
Track 1 satellite(s)




NASA's NSSDC Master Catalog

Two Line Element Set (TLE):
1 46657U 18079CK  25198.72215685 -.00000124  00000-0  00000-0 0  9992
2 46657  12.2427  48.0907 5074197 288.2464  24.2857  1.69666846 29644
Source of the keplerian elements: AFSPC